Regional Weather Roundup
Issued by NWS Jackson, KY

Home | Current Version | Previous Version | Graphics & Text | Print | Product List | Glossary On
Versions: 1 2 3 4 5 6 7 8 9 10 11 12 13 14 15 16 17 18 19 20 21 22 23 24 25 26 27 28 29 30 31 32 33 34 35 36 37 38 39 40 41 42 43 44 45 46 47 48 49 50
000
ASUS43 KJKL 250310
RWRJKL

EAST KENTUCKY HOURLY WEATHER ROUNDUP
NATIONAL WEATHER SERVICE JACKSON KY
1100 PM EDT TUE APR 24 2018

NOTE: "FAIR" INDICATES FEW OR NO CLOUDS BELOW 12,000 FEET WITH
NO SIGNIFICANT WEATHER AND/OR OBSTRUCTIONS TO VISIBILITY.

* THESE REPORTS ARE NOT UNDER NWS QUALITY CONTROL AND MAY NOT
  REPORT WEATHER SUCH AS PRECIPITATION AND FOG.

KYZ079-080-083-085-087-088-110-112-115-119-120-250400
...EASTERN KENTUCKY...

CITY           SKY/WX    TMP DP  RH WIND       PRES   REMARKS
JACKSON        CLOUDY    55  53  93 NW6       29.88F
LONDON         CLOUDY    56  54  93 NW5       29.89S
SOMERSET*      CLOUDY    54  54 100 CALM      29.93S
MONTICELLO*    CLOUDY    56  54  93 NW6       29.94R
WILLIAMSBURG*  CLOUDY    55  55 100 CALM      29.90S
MIDDLESBORO*   CLOUDY    56  56 100 CALM      29.89R
HARLAN APT*    CLOUDY    56  55  97 CALM      29.88S
PIKE CO APT*   DRIZZLE   55  55 100 N3        29.87S
BIG SANDY APT* DRIZZLE   56  56 100 CALM      29.87F
MOREHEAD APT*  FOG       55  54  94 CALM      29.90S VSB<1/4
ASHLAND*       CLOUDY    55  55 100 CALM      29.88F
$$

KYZ035-036-041-042-044-050-067-078-099-250400
...CENTRAL KENTUCKY...

CITY           SKY/WX    TMP DP  RH WIND       PRES   REMARKS
MT STERLING*   CLOUDY    54  54 100 NW3       29.91S
FLEMING/MASON* CLOUDY    53  53 100 CALM      29.90S FOG
DANVILLE*      CLOUDY    54  52  94 NW5       29.93S
LEXINGTON      CLOUDY    56  53  90 NW5       29.91S
FRANKFORT      CLOUDY    56  52  86 NW3       29.90S
LOUISVILLE     CLOUDY    56  54  93 NW7       29.93S
LEBANON*       CLOUDY    54  54 100 NW3       29.93S FOG
GLASGOW*       CLOUDY    55  53  95 NW5       29.95S
BOWLING GREEN  CLOUDY    57  55  93 NW6       29.96S
$$

KYZ091>093-OHZ055-061-077-WVZ005-015-034-035-042-250400
...SOUTHERN OHIO/WEST VIRGINIA...

CITY           SKY/WX    TMP DP  RH WIND       PRES   REMARKS
COVINGTON      CLOUDY    54  52  93 N9        29.91S
COLUMBUS       CLOUDY    54  51  90 E5        29.90S
DAYTON         LGT RAIN  52  52 100 N7        29.92F VSB 1/2
WILMINGTON     CLOUDY    53  53 100 NE3       29.90S FOG
HUNTINGTON     LGT RAIN  56  53  90 N3        29.87F FOG
CHARLESTON     MOCLDY    55  55 100 CALM      29.86F
PINEVILLE*     CLOUDY    54  53  97 MISG      29.90F
BECKLEY        CLOUDY    52  49  89 E8        29.87F
BLUEFIELD      CLOUDY    50  48  93 E5        29.88F
LOGAN CO APT*  FOG       54  54 100 CALM      29.86S VSB<1/4
$$

VAZ002-007-008-TNZ017-027-036-066-071-250400
...SOUTHWEST VIRGINIA/EAST TENNESSEE...

CITY           SKY/WX    TMP DP  RH WIND       PRES   REMARKS
WISE*          FOG       54  54 100 CALM      29.89S VSB 1/4
JONESVILLE*    FOG       55  55 100 CALM      29.89S VSB 1/2
ABINGDON*      RAIN      56  56 100 CALM      29.86S
BRISTOL        CLOUDY    56  56 100 CALM      29.86S
MORRISTOWN*    CLOUDY    57  57 100 W5        29.87S
SEVIERVILLE*   CLOUDY    59  57  94 SW5       29.88R
KNOXVILLE      CLOUDY    58  56  93 W6        29.88R
LAFOLLETTE*    CLOUDY    59  54  82 CALM      29.93R
OAK RIDGE      CLOUDY    58  57  97 CALM      29.90R
CROSSVILLE     CLOUDY    54  51  90 VRB5      29.94R
NASHVILLE      CLOUDY    57  53  86 NW8       29.97S
$$

...KEY TO REMARKS...
VSB - VISIBILITY IN MILES
WCI - WIND CHILL INDEX
HX  - HEAT INDEX

$$



USA.gov is the U.S. government's official web portal to all federal, state and local government web resources and services.